Regional Weather Roundup
Issued by NWS Charleston, SC

Current Version | Previous Version | Graphics & Text | Print | Product List | Glossary On
Versions: 1 2 3 4 5 6 7 8 9 10 11 12 13 14 15 16 17 18 19 20 21 22 23 24 25 26 27 28 29 30 31 32 33 34 35 36 37 38 39 40 41 42 43 44 45 46 47 48 49 50
000
ASUS42 KCHS 211725
RWRCHS

REGIONAL WEATHER ROUNDUP
NATIONAL WEATHER SERVICE CHARLESTON SC
1200 PM EST SUN DEC 21 2014

NOTE: "FAIR" INDICATES FEW OR NO CLOUDS BELOW 12,000 FEET WITH NO
SIGNIFICANT WEATHER AND/OR OBSTRUCTIONS TO VISIBILITY.

NOT ALL STATIONS ARE QUALITY CONTROLLED BY THE NATIONAL
WEATHER SERVICE. USE DATA WITH CAUTION...ESPECIALLY
DEWPOINT OBSERVATIONS.

SCZ027-030-031-034>040-042>050-211800-
...SOUTHEAST SOUTH CAROLINA...

CITY           SKY/WX    TMP DP  RH WIND       PRES   REMARKS
N CHARLESTON   CLOUDY    49  40  71 NE12      30.21F
WATERFRONT PRK NOT AVBL
MOUNT PLEASANT CLOUDY    48  41  76 NE6       30.21F
PINOPOLIS        N/A     46  39  76 NE12      30.16S
MONCKS CORNER  FAIR      48  39  71 NE7       30.22F
SUMMERVILLE    CLOUDY    46  41  81 NE9       30.21F
BEAUFORT MCAS  CLOUDY    49  44  83 N9        30.19F
BEAUFORT ARPT  CLOUDY    50  46  87 NE9       30.18F
HILTON HEAD IS CLOUDY    50  46  87 N9        30.20F FOG
WALTERBORO     CLOUDY    48  41  76 NE5       30.21F
ALLENDALE      CLOUDY    48  41  76 VRB5      30.21F

...SOUTHERN MIDLANDS AND PEE DEE...

CITY           SKY/WX    TMP DP  RH WIND       PRES   REMARKS
GEORGETOWN     NOT AVBL
KINGSTREE      NOT AVBL
ORANGEBURG     CLOUDY    51  39  63 NE8       30.23F
BARNWELL       CLOUDY    52  39  62 E8        30.22S
AIKEN          CLOUDY    52  41  66 E12       30.24F
MANNING        NOT AVBL
COLUMBIA       PTSUNNY   51  37  58 NE10      30.23F
SUMTER         NOT AVBL
FLORENCE       PTSUNNY   52  38  58 E9        30.26F
MYRTLE BEACH   CLOUDY    48  37  66 NE14      30.26F
N MYRTLE BEACH CLOUDY    47  36  65 NE10      30.24F

$$

GAZ063-065-086>088-099>101-113>116-118-119-134>141-150-211800-
...SOUTHEAST GEORGIA...

CITY           SKY/WX    TMP DP  RH WIND       PRES   REMARKS
SAVANNAH ARPT  CLOUDY    50  47  89 NE8       30.18F
HUNTER AAF     CLOUDY    50  49  94 NE8       30.15F
FORT STEWART   CLOUDY    50  48  93 N7        30.15F
STATESBORO     DRIZZLE   48  48 100 NE6       30.19F
SYLVANIA       CLOUDY    47  44  87 NE5       30.22S
CLAXTON        DRIZZLE   46  46 100 NE8       30.18F

...CSRA...CENTRAL AND FAR SOUTHEAST GEORGIA...

CITY           SKY/WX    TMP DP  RH WIND       PRES   REMARKS
THOMSON        CLOUDY    52  47  82 E6        30.25F
AUGUSTA-BUSH   MOSUNNY   53  40  61 NE8       30.23F
AUGUSTA-DANIEL CLOUDY    54  43  66 E12       30.22F
SWAINSBORO     CLOUDY    50  50 100 E8        30.19F
VIDALIA        CLOUDY    50  48  93 NE9       30.17F
EASTMAN        DRIZZLE   51  51 100 E7        30.18F
HAZLEHURST     CLOUDY    52  52 100 NE5       30.15F
ALMA           CLOUDY    51  49  92 NE6       30.15F
WAYCROSS       CLOUDY    56  55  96 E8        30.14F
JESUP          CLOUDY    54  52  94 NE8       30.15F
BAXLEY         DRIZZLE   52  50  93 NE6       30.15F
BRUNSWICK      CLOUDY    55  52  88 N3        30.15F
SAINT SIMONS   CLOUDY    56  53  90 NE9       30.14F

$$

SCZ027-028-034-036>038-045-046-048>050-GAZ119-141-211800-
...LAKE AND SUPPLEMENTAL COASTAL OBSERVATIONS...

STATION/POSITION TIME  TEMP    WIND        PRES    WAVE   SWELL
                       AIR SEA DIR/SP/G            HT/PER HT/PER/DIR
                 (UTC) (F)     (DEG/KT/KT) (MB)    (FT/S) (FT/S/D)
UPR LAKE MARION  NOT AVBL
WINYAH BAY       1700   46      30/  8     1023.0S
LAKE MURRAY      1700   48      50/  4/  7 1023.4F
ACE BASIN NERRS  1700   48      20/  4     1022.0F
FORT PULASKI     1700   49 56   30/  9/ 13 1022.1F
SAPELO ISLAND    1700   53      30/  9     1021.0S

$$

ANZ835-935-AMZ111-154-330-350-352-354-370-450-454-472-211800-
...C-MAN AND BUOY OBSERVATIONS...

STATION/POSITION TIME  TEMP    WIND        PRES    WAVE   SWELL
                       AIR SEA DIR/SP/G            HT/PER HT/PER/DIR
                 (UTC) (F)     (DEG/KT/KT) (MB)    (FT/S) (FT/S/D)
BUOY 41004       1700   61 69   30/ 19/ 21 1020.9F   7/ 6
BUOY 41008       1700   57 59   40/ 17/ 19 1020.6F   5/ 7   2/ 60/11
FOLLY BEACH CMAN 1700   49      20/ 12/ 14 1023.1F
CAPERS NEARSHORE 1600   49      40/ 17/ 21   N/A
FRIPP NEARSHORE  NOT AVBL


STATION/POSITION TIME  TEMP    WIND        PRES    WAVE   SWELL
                       AIR SEA DIR/SP/G            HT/PER HT/PER/DIR
                 (UTC) (F)     (DEG/KT/KT) (MB)    (FT/S) (FT/S/D)
5E ST. MARYS GA  1700      61                N/A     5/ 6
FRYING PAN BUOY  1700   56 69   40/ 23/ 29 1022.1F   7/ 6
BUOY 41025       1700   52                 1024.8F   3/ 5
CAPE LOOKOUT NC  1700   44      20/ 15/ 18 1024.5F
BUOY 41002       1623   67 71   90/ 19/ 23 1020.0F   6/ 6   2/100/10
BUOY 41010       1700   75 77  190/  8/ 10 1019.9F   3/10   2/110/10
ST AUGUSTINE FL  1700   62     350/ 14/ 16 1020.0S


$$



USA.gov is the U.S. government's official web portal to all federal, state and local government web resources and services.